Date,TemperatureHighF,TemperatureAvgF,TemperatureLowF,DewpointHighF,DewpointAvgF,DewpointLowF,HumidityHigh,HumidityAvg,HumidityLow,PressureMaxIn,PressureMinIn,WindSpeedMaxMPH,WindSpeedAvgMPH,GustSpeedMaxMPH,PrecipitationSumIn
2013-1-1,44.3,41.5,37.1,41.1,37.3,32.0,90,85,81,30.21,29.97,13,5,13,0.01
2013-1-2,39.8,36.1,32.0,32.0,29.9,25.8,82,78,72,30.27,30.19,9,3,9,0.00
2013-1-3,56.0,40.3,28.8,34.7,29.1,23.5,85,66,40,30.39,30.25,14,3,14,0.00
2013-1-4,51.7,44.2,37.8,35.4,31.9,28.8,75,62,46,30.45,30.29,6,2,6,0.00
2013-1-5,56.5,45.1,39.1,41.7,36.7,31.4,86,73,54,30.30,30.15,10,3,10,0.02
2013-1-6,63.0,45.0,31.9,35.4,29.6,24.1,84,58,30,30.32,30.22,12,2,12,0.01
2013-1-7,59.9,44.4,30.6,38.4,30.0,20.5,68,58,43,30.27,30.05,14,3,14,0.00
2013-1-8,49.0,46.6,45.4,46.6,40.7,32.7,92,80,61,30.05,29.90,13,5,13,0.85
2013-1-9,55.6,51.9,49.0,53.3,49.6,46.4,93,92,91,30.07,29.91,21,8,21,1.60
2013-1-10,61.7,56.2,49.1,56.7,49.9,43.5,93,80,60,29.96,29.85,20,8,20,0.03
2013-1-11,71.3,59.5,48.4,59.2,49.3,43.1,83,71,48,29.91,29.73,16,8,16,0.00
2013-1-12,72.4,56.8,36.7,67.6,52.6,32.3,92,86,79,29.86,29.59,14,7,14,0.32
2013-1-13,48.1,37.4,30.4,32.7,27.3,21.2,84,68,48,30.20,29.86,13,7,13,0.00
2013-1-14,46.8,35.6,27.4,29.7,24.4,20.4,76,64,49,30.27,30.14,11,5,11,0.00
2013-1-15,35.8,33.1,29.5,31.3,27.3,22.2,88,79,65,30.15,30.08,8,4,8,0.07
2013-1-16,52.7,39.2,27.9,29.1,25.0,21.6,78,59,38,30.22,30.10,9,3,9,0.06
2013-1-17,64.1,47.1,34.0,39.1,30.8,23.2,69,55,36,30.42,30.17,10,3,10,0.00
2013-1-18,63.5,47.8,33.3,38.5,32.7,24.7,76,57,39,30.44,30.22,13,5,13,0.00
2013-1-19,65.5,54.7,40.5,46.2,41.9,34.1,81,63,47,30.21,30.09,17,5,17,0.00
2013-1-20,71.3,56.2,41.0,51.9,43.6,35.7,84,65,40,30.16,30.01,14,3,14,0.00
2013-1-21,65.5,50.2,38.0,42.9,36.3,28.4,82,60,43,30.22,30.06,12,4,12,0.00
2013-1-22,65.2,49.8,36.2,47.3,37.6,25.8,75,63,51,30.25,30.12,10,4,10,0.00
2013-1-23,74.0,60.3,50.4,55.6,51.0,42.9,86,72,52,30.22,30.07,19,6,19,0.00
2013-1-24,76.7,63.0,54.7,61.7,56.2,50.6,92,80,57,30.13,29.98,14,6,14,0.00
2013-1-25,60.7,51.9,46.4,57.2,46.0,39.8,91,80,71,30.13,29.96,8,4,10,0.00
2013-1-26,49.7,47.9,46.1,46.4,44.4,40.2,92,88,73,30.15,30.04,12,5,13,0.01
2013-1-27,75.6,61.0,47.0,62.7,55.3,44.8,94,83,59,30.04,29.87,22,8,22,0.00
2013-1-28,76.7,70.2,64.8,66.3,62.8,59.7,89,78,65,29.95,29.80,20,10,20,0.00
2013-1-29,75.8,66.4,53.8,65.9,59.7,44.8,88,79,55,29.80,29.40,25,12,25,0.28
2013-1-30,54.4,47.6,38.5,44.8,31.5,25.4,77,54,39,30.07,29.62,24,8,24,0.00
2013-1-31,68.6,50.6,36.4,31.9,26.9,23.1,61,43,21,30.25,30.02,20,6,20,0.00